Location: El Abasto
(10.3790°N, 67.5897°W)
Time: 19:55:33
(UTC+00:00)

Centaur D-1AR AC-37 - Pass Details

Date: 19 May 2024
Orbit: 625 x 36461 km, 22.0° (Epoch: 11 June)

Event Time Altitude Azimuth Distance (km) Brightness Sun altitude
Rises 23:02:20 0° 290° (WNW) 3,673 11.2 -4.6°
Reaches altitude 10° 23:05:08 10° 291° (WNW) 2,208 8.8 -5.3°
Maximum altitude 23:09:01 89° 12° (NNE) 627 4.1 -6.1°
Drops below altitude 10° 23:13:34 10° 110° (ESE) 2,575 6.5 -7.2°
Enters shadow 23:14:01 - 110° (ESE) 2,805 6.7 -7.3°
